Wind_Speed
80 82 84 86 88 90 92 93 94 94 92 90 91 91 91 91 90 90 90 90 89 89 88 87 86 84 83 82 80 78 76 74 73 72 69 67 66 65
84 86 88 89 91 91 91 91 92 92 91 87 87 88 89 89 87 86 86 86 87 87 86 86 85 84 83 82 81 79 78 76 74 73 71 70 69 67
87 88 89 89 90 88 87 86 85 85 86 82 80 80 81 81 81 80 80 80 81 81 81 82 82 82 81 81 80 79 78 76 75 74 72 72 70 69
88 88 88 86 84 82 80 79 78 78 78 74 70 71 73 72 72 72 72 72 73 74 74 75 76 77 77 78 78 78 77 76 75 74 73 72 71 70
87 85 82 79 77 75 74 72 71 70 70 68 64 64 64 65 65 64 65 66 67 68 69 69 69 70 71 72 74 74 75 74 73 73 71 71 71 70
81 78 74 72 70 68 67 66 65 65 64 63 61 58 58 59 59 58 59 60 61 62 63 64 65 66 66 67 68 68 69 70 71 71 71 71 70 69
73 70 67 65 63 62 62 60 60 60 59 59 57 55 53 53 54 54 55 55 56 57 58 59 60 61 62 62 63 65 66 67 68 69 69 69 69 68
66 63 61 59 58 57 57 56 55 54 54 53 52 51 49 50 51 51 51 52 52 52 53 54 57 57 59 60 61 62 64 66 66 66 67 68 68 67
60 58 56 55 54 52 51 50 50 50 51 50 49 46 46 46 47 48 48 49 49 50 50 49 51 53 55 57 60 62 63 64 64 65 66 66 67 68
56 54 52 51 50 49 48 47 47 47 47 47 46 45 44 43 44 45 45 46 46 47 47 47 48 50 51 53 54 56 59 60 62 63 64 64 65 65
52 50 49 48 47 47 46 45 45 44 44 44 44 43 42 42 43 43 43 44 43 44 45 45 46 47 48 49 51 54 56 57 58 59 61 62 63 64
48 47 47 46 46 45 45 44 43 42 42 42 42 41 40 40 41 42 42 42 42 42 42 44 45 46 46 47 48 50 52 53 55 56 58 59 60 62
46 45 44 44 44 44 44 43 42 41 40 39 38 38 38 39 40 41 41 42 42 42 41 43 44 45 45 45 46 48 50 52 53 54 56 57 59 60
44 43 43 43 42 42 41 41 41 40 39 38 37 37 37 37 38 39 40 41 41 41 41 42 42 43 45 45 45 46 48 50 52 53 55 56 57 58
44 43 42 42 41 40 39 40 39 39 38 37 36 36 36 36 37 37 38 39 40 40 41 41 42 42 43 44 45 45 46 47 49 50 52 53 54 55
42 41 40 39 39 38 38 38 38 38 37 36 35 35 35 35 36 36 36 37 38 39 39 40 41 42 42 43 43 43 44 45 46 48 50 51 52 53
39 38 37 36 36 36 36 36 35 35 35 34 34 34 34 34 34 35 35 35 35 36 37 38 39 39 40 40 40 41 42 43 44 46 47 48 49 51
38 36 34 33 33 33 33 33 33 33 33 33 33 33 33 33 33 33 34 34 33 34 34 35 36 37 37 37 38 39 40 42 44 45 46 47 47 49
35 34 33 32 32 32 32 32 32 32 32 31 31 31 31 31 31 31 31 31 31 31 31 32 33 34 35 35 36 38 40 41 43 44 45 46 45 46
34 33 32 32 32 32 32 31 30 30 30 29 29 29 29 29 29 29 29 29 29 29 30 30 31 33 34 35 35 36 38 40 41 41 42 43 43 44
32 32 32 32 32 32 31 30 29 28 28 28 27 27 27 27 27 27 27 27 28 28 29 30 31 31 32 33 33 34 36 38 39 40 40 41 41 42
31 32 32 32 31 31 30 29 28 28 27 27 27 26 26 26 26 26 26 27 27 28 28 29 30 31 32 32 33 34 35 37 39 39 40 40 41 40
31 31 32 31 31 30 29 28 28 27 27 26 25 25 25 25 25 25 26 27 27 28 29 29 30 32 32 33 33 34 35 36 38 39 39 40 39 38
Wind_Direction
292 291 290 290 288 287 286 284 283 282 280 278 277 276 274 271 270 268 266 264 263 261 260 259 258 258 258 257 257 257 257 258 259 259 260 260 261 261
294 293 292 291 290 288 287 285 284 283 281 279 277 276 274 272 270 268 267 265 263 262 260 258 257 257 256 256 256 256 256 256 257 258 258 259 259 260
296 295 294 292 291 289 288 286 285 283 282 281 278 276 275 273 270 268 267 266 264 262 260 258 257 256 255 255 255 255 255 255 255 256 257 257 258 259
298 296 295 293 292 290 288 287 286 285 284 282 280 277 276 274 272 269 267 266 264 262 260 259 257 256 254 254 254 253 254 254 254 255 255 256 257 257
299 297 296 294 292 291 289 288 287 285 284 284 282 278 276 275 273 271 268 266 264 262 260 258 256 255 253 252 252 252 252 253 253 254 254 255 255 256
299 297 296 294 293 291 290 289 288 286 285 285 283 280 277 275 273 271 268 266 264 262 260 258 256 254 253 251 251 251 251 251 252 252 253 254 254 255
299 297 296 294 293 292 291 290 288 287 286 286 284 281 277 275 273 271 269 266 264 263 261 258 255 254 252 251 250 250 250 251 251 251 252 252 252 253
299 297 295 294 293 292 291 290 290 289 287 286 284 281 278 274 272 270 269 267 265 263 262 259 256 254 252 251 250 250 250 250 250 250 250 251 251 252
298 296 295 294 293 292 291 290 290 289 289 287 285 282 278 274 272 270 269 267 264 262 261 260 258 256 254 253 251 250 250 250 250 250 251 251 251 252
298 297 296 295 294 292 291 290 289 289 288 287 285 282 279 275 273 271 269 267 265 263 262 261 259 257 255 253 252 251 251 251 250 250 251 251 251 252
299 298 297 295 294 292 292 291 289 288 286 285 284 283 280 276 274 271 269 268 267 264 262 261 259 257 256 255 253 252 251 251 251 251 251 251 252 252
300 298 297 295 294 293 292 291 290 288 286 285 284 282 280 277 275 273 271 269 267 265 262 261 259 258 257 256 254 253 252 252 252 251 251 251 251 252
300 299 297 296 295 294 293 292 290 289 287 286 283 281 279 277 275 273 271 269 267 266 263 261 260 258 258 256 255 254 253 252 252 252 252 252 253 253
302 300 298 297 295 294 293 291 290 290 289 287 285 282 279 278 276 273 271 270 268 267 264 262 261 260 259 258 257 256 255 254 254 253 253 253 253 254
302 302 300 298 297 295 294 292 290 289 288 287 285 283 280 279 277 276 273 271 268 266 265 263 262 260 259 259 258 257 256 255 255 254 253 253 253 253
303 303 301 299 298 297 295 293 292 290 289 288 286 284 282 280 278 277 276 273 270 268 265 263 262 261 260 259 258 257 256 255 255 255 254 254 254 254
304 304 302 301 299 298 297 295 294 292 291 289 288 285 283 282 280 278 277 275 272 269 266 263 262 261 260 259 258 257 257 256 256 256 256 255 255 256
307 307 306 304 302 301 300 298 296 295 293 291 289 287 285 283 281 280 279 277 274 270 267 265 263 262 261 260 259 259 258 258 258 258 258 258 258 257
308 308 307 306 305 304 303 301 299 297 296 294 292 289 286 284 282 281 279 277 274 271 268 266 265 264 263 261 260 260 260 259 259 260 260 260 259 258
308 308 308 307 307 306 305 303 301 299 298 297 295 292 289 286 284 283 280 277 275 272 271 269 267 265 264 263 262 261 262 262 262 262 262 261 260 259
308 308 309 308 307 307 307 305 304 302 300 299 297 295 292 289 286 285 283 280 277 274 272 270 268 267 267 266 265 264 263 264 264 264 264 263 262 261
309 310 310 310 309 309 308 306 305 304 302 300 299 296 294 291 289 287 284 281 278 276 274 272 270 270 269 269 268 267 265 265 265 266 266 265 265 263
310 311 312 311 310 309 307 306 306 304 303 302 300 298 296 294 292 289 286 282 279 277 275 274 273 273 272 271 271 270 269 268 267 267 267 267 266 264
Height
5630 5622 5614 5606 5597 5589 5581 5574 5567 5565 5568 5567 5558 5551 5547 5546 5544 5540 5540 5542 5542 5545 5548 5552 5555 5559 5563 5566 5570 5574 5577 5581 5584 5587 5591 5594 5597 5600
5606 5598 5589 5579 5570 5562 5553 5545 5537 5531 5532 5540 5531 5523 5516 5516 5515 5512 5511 5512 5514 5517 5521 5525 5529 5533 5538 5542 5546 5551 5555 5559 5563 5567 5571 5574 5578 5581
5581 5571 5562 5551 5542 5534 5525 5518 5511 5503 5498 5508 5504 5496 5489 5488 5488 5486 5485 5485 5487 5490 5493 5498 5503 5508 5513 5518 5523 5528 5533 5537 5542 5546 5550 5554 5558 5562
5555 5544 5535 5524 5516 5507 5499 5492 5486 5479 5473 5475 5479 5472 5466 5463 5462 5462 5462 5461 5463 5466 5468 5472 5478 5483 5489 5494 5499 5505 5510 5515 5520 5525 5530 5534 5538 5541
5529 5518 5509 5499 5492 5484 5476 5470 5464 5458 5452 5450 5453 5451 5446 5443 5440 5441 5441 5441 5442 5444 5446 5450 5455 5460 5465 5471 5476 5482 5488 5494 5499 5504 5508 5513 5517 5521
5504 5494 5486 5477 5470 5463 5456 5450 5444 5439 5434 5430 5430 5430 5427 5424 5421 5422 5421 5422 5423 5424 5427 5431 5435 5439 5444 5450 5456 5461 5466 5472 5477 5482 5487 5492 5497 5501
5482 5473 5465 5458 5451 5444 5438 5433 5426 5421 5417 5413 5411 5410 5409 5406 5404 5403 5403 5404 5406 5407 5409 5413 5416 5420 5425 5430 5435 5441 5446 5451 5456 5461 5466 5471 5476 5481
5463 5455 5447 5440 5434 5427 5421 5416 5410 5405 5401 5397 5395 5393 5392 5389 5388 5387 5387 5388 5390 5393 5392 5395 5398 5402 5407 5412 5417 5421 5426 5431 5436 5441 5445 5451 5456 5461
5444 5437 5431 5424 5418 5412 5407 5402 5396 5391 5386 5382 5379 5378 5376 5375 5373 5372 5372 5372 5374 5375 5377 5380 5382 5386 5389 5393 5398 5402 5407 5411 5416 5421 5426 5431 5436 5441
5427 5420 5415 5409 5403 5397 5393 5388 5384 5379 5373 5368 5365 5364 5362 5360 5359 5358 5357 5358 5360 5361 5362 5365 5367 5369 5372 5376 5380 5384 5388 5393 5397 5402 5407 5412 5416 5421
5412 5406 5400 5394 5389 5383 5378 5374 5371 5366 5361 5356 5353 5351 5349 5347 5346 5345 5345 5345 5346 5348 5348 5350 5352 5354 5357 5360 5363 5367 5370 5375 5379 5384 5388 5393 5397 5401
5399 5392 5386 5380 5375 5370 5365 5361 5357 5353 5349 5345 5342 5339 5336 5335 5333 5332 5332 5332 5333 5334 5335 5336 5338 5339 5342 5345 5348 5351 5354 5358 5362 5366 5370 5374 5378 5381
5385 5379 5374 5368 5362 5357 5352 5348 5344 5340 5336 5333 5330 5328 5325 5323 5321 5320 5319 5319 5319 5321 5322 5322 5324 5325 5328 5331 5333 5335 5338 5342 5345 5349 5352 5356 5360 5363
5371 5366 5360 5355 5350 5345 5340 5335 5331 5327 5324 5321 5319 5316 5314 5312 5310 5308 5307 5306 5306 5307 5308 5309 5310 5312 5314 5316 5318 5321 5323 5325 5329 5332 5335 5338 5341 5345
5359 5353 5347 5342 5337 5333 5328 5324 5320 5316 5313 5310 5307 5305 5302 5300 5298 5296 5294 5293 5293 5293 5294 5295 5297 5298 5299 5301 5304 5306 5308 5310 5312 5315 5318 5321 5324 5327
5348 5342 5336 5330 5325 5321 5317 5313 5308 5305 5301 5299 5296 5293 5291 5289 5286 5284 5282 5281 5280 5281 5281 5282 5283 5284 5285 5287 5289 5291 5293 5295 5297 5299 5301 5304 5307 5310
5337 5332 5326 5320 5315 5311 5306 5302 5298 5294 5291 5287 5285 5282 5280 5277 5275 5273 5271 5269 5269 5268 5269 5269 5270 5271 5272 5274 5275 5277 5279 5280 5282 5283 5285 5288 5291 5294
5327 5321 5316 5311 5306 5301 5297 5292 5288 5284 5280 5277 5274 5271 5269 5266 5264 5262 5260 5258 5257 5257 5257 5257 5258 5259 5260 5262 5263 5264 5265 5266 5267 5269 5270 5273 5276 5277
5317 5312 5307 5302 5297 5292 5288 5283 5279 5275 5271 5267 5264 5261 5258 5256 5254 5252 5250 5248 5247 5246 5246 5246 5247 5247 5249 5250 5251 5251 5251 5252 5253 5254 5255 5257 5260 5261
5309 5304 5299 5294 5289 5284 5279 5274 5270 5266 5262 5258 5254 5251 5248 5246 5244 5242 5240 5238 5237 5237 5236 5236 5236 5236 5237 5238 5239 5239 5238 5238 5239 5240 5241 5242 5244 5245
5300 5295 5290 5285 5280 5275 5270 5266 5261 5257 5253 5250 5246 5243 5240 5237 5235 5233 5231 5229 5228 5227 5226 5226 5225 5225 5225 5226 5226 5227 5226 5225 5225 5225 5226 5227 5228 5230
5292 5287 5282 5276 5272 5267 5262 5257 5253 5249 5245 5241 5238 5234 5231 5228 5226 5224 5222 5220 5219 5217 5216 5216 5215 5214 5214 5214 5214 5214 5214 5212 5212 5212 5212 5212 5212 5214
5283 5278 5273 5268 5263 5258 5253 5249 5245 5241 5237 5233 5229 5226 5223 5220 5218 5215 5213 5211 5209 5208 5207 5205 5204 5203 5203 5202 5202 5201 5201 5199 5198 5198 5198 5197 5197 5198